Theta_e
338 338 339 340 339 339 339 340 339 338 337 337 336 335 334 334 333 332 331 331 331 331 332 334 333 333 332 332 332 332 332 332 332 330 329 327 325 324 324 323 320 314 309 306 304 303 302 302 302 301 301 301 300 300 300 300 300 299 299 299 299 301 304 307 307 307 305 304 304 303 302 302 302 301 299 297 297 297 296 296 296 296 296 296 296
339 339 339 340 340 339 340 339 340 339 337 337 336 335 334 334 334 333 332 331 330 330 333 334 333 333 332 332 332 331 331 331 331 330 329 327 326 325 323 320 315 311 307 305 303 302 301 301 301 301 301 300 300 300 300 299 299 299 299 299 298 299 302 304 306 306 305 304 304 303 303 302 300 299 298 297 297 297 296 297 297 296 296 296 296
339 339 339 340 340 339 340 339 339 339 338 337 336 335 335 335 335 334 333 331 330 331 334 335 333 333 332 332 331 330 330 330 330 329 328 327 326 324 320 315 311 308 305 304 302 301 301 301 300 300 300 300 300 300 299 299 299 299 298 298 298 298 299 300 302 304 304 304 303 303 302 300 298 298 297 297 297 297 297 297 296 296 296 296 296
339 339 339 340 340 340 339 339 339 339 338 337 336 336 335 336 335 335 333 331 330 332 335 335 334 333 332 332 331 329 329 329 329 329 327 326 326 322 316 311 309 307 304 303 301 300 300 300 300 300 300 300 299 299 299 299 298 298 298 298 298 298 298 298 299 300 301 301 301 300 299 298 298 297 297 296 296 296 297 297 297 296 296 296 296
339 339 339 340 340 340 340 339 339 339 338 337 336 336 336 336 336 335 333 331 331 334 335 335 334 333 333 332 330 329 328 329 329 328 327 326 324 319 313 309 308 306 304 302 300 300 300 300 300 300 299 299 299 299 299 298 298 298 298 298 298 298 298 298 298 298 298 298 298 298 298 298 297 297 297 296 296 296 297 297 297 297 296 296 296
339 339 340 340 340 340 340 338 338 338 339 338 337 336 336 336 336 335 333 331 333 335 335 335 334 333 333 332 330 329 328 329 329 327 326 325 321 316 312 309 307 306 303 301 300 300 300 300 300 299 299 299 299 298 298 298 298 298 298 298 298 298 298 298 298 298 298 298 298 297 297 297 297 297 297 297 296 297 297 297 297 297 296 296 296
339 339 340 340 340 340 340 338 338 338 339 338 337 337 337 337 337 335 333 332 334 335 335 335 334 333 332 332 330 329 329 329 329 327 326 324 320 315 311 308 307 305 303 301 300 300 299 299 299 299 299 299 298 298 298 298 298 298 298 297 298 299 300 298 297 298 297 297 297 297 297 297 297 297 297 297 297 297 298 298 297 297 296 296 296
339 339 339 340 340 340 340 339 338 338 339 338 337 337 337 337 337 336 333 333 335 334 334 335 334 333 333 332 330 329 329 330 328 327 326 324 320 315 311 308 306 305 303 301 300 300 299 299 299 299 299 298 298 298 298 298 298 297 298 298 299 301 300 298 297 297 297 297 297 297 297 297 297 297 297 297 297 298 298 298 297 297 296 296 296
339 339 339 339 340 340 340 339 338 338 338 338 338 338 337 337 337 336 334 334 334 334 334 335 334 333 333 332 330 329 329 329 328 326 325 323 319 315 311 309 307 305 302 301 300 300 299 299 299 298 298 298 298 298 298 297 297 298 299 300 300 300 298 297 297 297 297 297 297 297 297 297 297 297 297 297 297 298 298 298 297 297 296 296 297
339 339 339 339 339 340 340 339 338 338 338 338 338 338 337 337 337 335 334 334 334 333 334 335 334 333 332 331 330 329 329 328 327 326 325 322 318 315 312 310 307 305 303 301 300 300 299 299 298 298 298 298 298 298 297 297 298 299 300 299 298 298 297 297 297 297 297 297 297 297 297 297 297 297 297 297 298 298 298 298 298 297 296 296 296
339 338 338 338 338 338 339 339 337 337 338 338 338 338 337 337 337 335 334 334 334 333 334 335 334 333 332 330 330 329 328 327 326 325 324 322 318 315 313 310 308 305 302 301 300 299 299 299 298 298 298 298 298 297 297 297 298 299 299 298 297 297 296 296 297 296 296 296 296 297 297 297 297 297 297 297 298 299 298 298 298 297 297 297 297
338 338 338 338 338 338 338 337 336 336 337 338 338 338 337 336 336 335 333 334 334 333 334 335 333 332 331 330 329 328 327 326 325 325 324 321 319 316 314 312 309 305 303 301 300 299 299 299 298 298 298 298 297 297 297 297 298 299 299 297 297 297 296 296 296 296 296 296 296 297 297 297 297 297 297 298 299 299 298 298 298 297 297 297 297
338 338 338 338 338 338 337 336 336 335 336 337 337 337 336 335 334 334 333 333 333 334 335 334 332 331 330 329 329 328 327 326 326 325 324 321 318 317 316 313 310 306 303 301 300 299 299 299 298 298 298 298 298 297 297 297 297 298 298 297 296 297 297 296 296 296 296 296 296 296 297 297 296 297 297 298 299 299 299 299 299 298 298 298 297
338 338 338 338 337 337 337 336 336 336 336 336 336 336 336 335 333 333 333 333 333 334 334 332 331 330 329 328 328 327 326 326 326 325 324 321 318 317 316 313 310 306 303 301 300 300 299 299 299 299 299 298 298 297 297 297 297 298 297 296 296 297 296 296 296 296 296 296 296 297 297 297 297 297 297 298 299 299 299 300 299 299 299 298 298
338 338 338 338 337 337 336 336 336 336 336 335 336 337 336 335 334 334 333 333 334 334 332 331 331 330 328 328 328 327 326 326 326 325 324 321 318 317 316 313 309 305 303 301 300 300 300 299 299 299 299 299 298 298 297 297 297 297 297 296 296 296 296 296 296 296 296 296 296 297 297 297 297 297 297 298 298 299 299 299 299 299 299 299 299
338 338 337 338 337 337 336 336 336 336 336 335 335 337 337 335 334 333 333 334 334 333 331 331 330 329 328 328 328 327 326 326 326 325 324 321 319 317 315 311 308 305 303 302 301 300 300 300 299 299 300 299 299 298 298 298 297 297 297 296 296 296 296 296 296 296 296 296 297 298 299 298 297 297 297 298 298 299 299 299 299 299 299 300 300
339 338 338 337 337 337 337 336 336 336 335 334 335 337 337 335 333 333 334 335 334 332 331 330 330 329 327 327 327 326 326 326 326 325 323 321 319 317 314 310 307 305 304 302 301 301 300 300 300 300 301 300 300 300 299 299 298 297 297 296 296 296 296 296 296 296 296 297 298 299 299 299 298 297 297 297 298 299 299 299 300 300 300 300 301
339 338 338 337 337 337 337 337 337 336 335 334 335 337 336 334 333 334 334 334 333 332 330 330 329 329 327 326 326 325 326 326 325 324 323 321 319 316 314 311 308 306 305 303 302 302 301 301 301 301 302 302 302 301 300 299 298 297 297 296 296 296 296 296 296 296 296 297 298 299 300 300 299 298 297 297 298 299 299 299 300 300 300 300 301
339 339 338 338 338 337 337 337 337 336 335 334 335 337 335 333 332 333 333 333 333 332 330 329 330 329 327 326 325 326 326 326 324 324 323 321 319 316 313 311 308 307 306 304 303 302 301 302 302 302 303 303 303 303 301 300 298 297 296 296 296 296 296 296 295 296 296 296 297 298 300 300 299 297 296 297 298 299 299 299 299 299 300 300 301
339 339 338 338 338 337 337 337 337 336 335 333 335 336 335 333 332 332 332 333 331 330 329 330 330 329 327 326 325 325 326 325 323 323 323 321 319 317 314 311 310 309 308 306 304 303 303 303 304 303 303 304 304 303 302 300 298 297 296 296 296 296 296 295 296 296 296 296 296 297 299 299 298 297 296 297 298 299 299 299 299 299 299 300 300
339 339 339 339 338 338 337 337 337 337 335 333 335 336 335 334 334 332 331 331 330 329 330 331 330 329 328 327 325 325 326 324 323 323 323 321 320 317 315 313 312 311 309 307 306 305 305 305 305 305 304 304 304 304 302 300 298 297 296 296 296 296 296 297 298 298 298 297 296 296 298 298 297 296 296 297 299 299 299 299 299 298 299 299 300
339 339 339 338 338 338 337 337 337 337 334 333 335 336 334 333 334 333 330 330 330 330 330 331 329 327 328 327 326 325 325 324 323 323 323 322 320 318 316 314 312 311 310 309 308 307 307 307 307 306 305 305 304 304 302 300 299 298 297 296 297 297 298 299 300 301 300 299 297 296 297 297 297 296 296 297 298 299 299 299 298 298 298 299 299
339 339 338 338 338 338 337 337 337 336 334 333 335 335 334 334 334 332 330 330 330 331 331 330 328 327 328 328 326 325 325 324 324 323 323 322 322 319 316 314 313 312 311 310 310 309 309 308 308 307 306 305 305 304 303 302 301 299 298 298 300 301 301 301 302 302 302 301 298 296 296 296 296 295 295 297 298 299 299 299 298 298 299 299 299
338 339 339 338 338 338 337 337 337 336 334 334 335 335 334 334 333 331 330 329 330 331 331 329 328 328 329 329 327 326 325 324 324 324 323 322 322 320 317 315 313 312 311 311 310 310 309 309 308 308 307 306 306 305 304 304 302 301 300 301 303 303 303 303 303 302 302 302 300 298 297 296 295 295 295 296 297 298 299 298 298 299 299 299 299
338 338 338 337 337 338 337 337 336 335 334 334 334 334 334 334 333 331 330 329 330 331 330 329 329 329 329 329 327 326 325 324 324 324 323 321 320 319 318 316 314 312 312 311 310 310 309 309 309 308 308 307 306 306 305 305 304 303 302 303 304 304 305 304 303 302 302 301 301 300 299 298 296 295 295 295 296 298 299 299 299 299 300 300 300
337 336 335 335 335 336 335 334 334 334 333 334 334 333 332 333 333 331 330 330 331 331 330 329 329 329 329 328 326 325 325 324 324 324 324 322 320 319 319 317 315 313 312 311 311 310 309 309 309 308 308 307 307 306 305 305 305 304 304 304 304 305 305 304 303 302 302 302 302 301 300 298 296 295 295 295 296 297 298 299 299 300 300 300 300
336 334 334 334 334 334 334 333 332 333 333 332 332 332 333 332 331 330 330 331 332 331 331 330 329 328 329 328 325 324 324 324 324 325 324 323 321 321 320 319 316 314 313 312 311 310 310 309 309 308 308 308 307 307 306 306 306 305 305 304 305 305 305 304 304 303 303 303 303 302 299 297 296 295 295 295 295 296 297 299 300 300 300 300 300
336 335 335 334 333 333 333 333 332 333 332 331 330 332 333 332 330 330 331 332 332 332 331 330 328 328 328 327 325 324 324 324 325 325 325 324 323 322 321 320 318 315 314 313 312 311 310 309 308 307 308 308 309 308 307 306 305 305 305 305 305 304 304 305 305 304 304 304 303 302 299 298 297 297 296 295 295 296 297 298 299 300 300 300 299
336 335 335 334 333 333 333 333 333 333 333 332 331 332 333 333 332 332 332 333 332 331 330 329 328 328 328 327 325 325 324 324 325 325 325 324 323 322 321 320 319 317 315 313 312 311 310 309 308 308 308 308 309 309 308 307 306 305 305 305 305 305 305 305 304 304 304 304 304 303 301 300 300 300 298 296 295 296 298 299 300 300 300 300 300
334 334 333 334 333 331 331 332 333 333 334 334 333 333 333 334 333 332 332 332 332 331 329 329 328 328 328 327 325 324 323 324 324 324 324 323 322 321 320 319 317 316 314 313 312 311 310 309 309 309 309 309 309 309 309 307 306 305 305 305 305 305 305 304 304 304 305 305 305 304 303 302 302 301 300 298 296 296 297 299 300 300 300 300 300
334 334 333 333 331 329 330 333 334 333 333 333 332 332 333 333 332 332 331 331 331 331 330 329 328 328 328 327 325 324 323 323 323 322 322 322 321 320 319 317 315 314 313 313 312 312 311 310 310 309 309 309 309 309 308 307 305 304 304 304 304 305 304 304 304 304 305 306 305 305 304 303 302 302 301 299 297 296 297 298 299 300 300 300 300
333 333 333 333 332 331 332 333 333 332 332 332 332 332 332 331 331 332 330 330 330 330 328 327 326 327 327 326 325 324 323 322 321 321 322 321 320 319 317 316 314 314 313 312 312 311 311 310 310 310 310 309 309 308 307 305 304 303 303 303 303 303 303 303 304 305 306 305 305 305 305 304 303 302 301 300 297 297 298 299 300 301 300 300 299
333 332 332 332 333 333 333 332 330 329 331 332 332 332 331 331 332 331 329 328 328 328 326 325 325 326 326 325 325 324 323 322 321 321 321 320 319 318 317 316 315 315 314 313 312 312 312 311 310 310 309 309 309 308 306 304 302 302 302 302 302 302 302 302 303 304 304 304 304 304 304 304 303 302 301 301 299 297 297 299 300 300 300 300 300
333 333 332 332 333 333 333 331 329 329 331 331 331 331 331 331 332 331 329 328 327 326 325 324 324 324 324 324 324 323 322 321 321 321 320 319 318 318 317 316 316 315 314 314 313 313 313 312 311 310 309 309 308 306 303 302 301 301 301 301 302 302 301 301 300 301 301 302 302 303 304 303 302 302 302 302 301 299 298 299 300 300 300 300 300
333 333 333 333 333 333 333 331 330 331 332 331 331 332 332 331 331 330 329 328 327 326 325 324 324 323 323 322 323 322 321 320 320 319 319 319 318 318 317 316 316 315 315 314 314 313 312 311 310 309 308 306 304 303 301 301 301 301 300 300 301 301 301 301 300 299 299 299 300 302 303 302 302 301 302 302 302 301 299 299 299 299 299 300 300
332 332 332 332 332 333 332 332 331 332 333 333 332 331 330 330 330 329 329 328 326 325 324 323 322 322 322 321 321 321 320 319 319 319 319 319 318 318 317 317 316 316 315 314 313 311 309 308 307 305 304 302 301 301 300 300 300 300 300 300 300 301 301 300 300 299 298 298 299 300 301 301 301 301 302 302 302 301 299 299 300 299 299 300 299
331 330 329 330 331 332 332 331 331 332 333 332 331 330 328 328 329 329 329 328 326 325 324 323 321 321 321 320 320 319 318 318 318 318 318 318 318 317 317 316 315 314 314 313 311 308 306 305 304 302 302 301 300 299 299 298 298 298 297 298 298 299 300 300 299 299 298 297 298 299 300 301 301 301 301 302 302 301 299 299 299 299 299 299 299
330 330 329 329 331 332 331 331 331 332 332 331 329 329 327 327 327 328 327 326 325 324 324 322 321 321 321 320 319 319 318 318 318 318 317 317 317 317 316 315 314 313 311 309 307 305 304 303 302 302 301 300 299 298 298 298 297 297 296 296 296 297 297 298 298 298 298 297 296 297 298 300 300 301 301 302 301 300 298 298 298 298 299 299 299
329 329 329 330 330 330 331 331 330 330 329 328 327 327 327 327 326 326 325 325 324 323 322 322 321 320 321 320 320 319 318 318 318 317 317 317 316 316 316 315 314 312 310 307 305 304 303 303 303 303 302 301 300 299 299 298 298 297 296 295 295 295 295 295 295 295 296 296 296 296 296 297 298 300 300 300 300 299 298 297 298 298 299 299 298
329 329 329 330 329 328 329 329 328 327 327 326 326 326 327 326 325 324 324 323 323 323 322 321 321 320 320 320 319 319 318 318 318 317 317 316 316 315 315 314 313 312 310 307 305 304 303 304 304 305 304 302 301 300 300 300 299 297 295 294 294 293 293 293 293 293 294 294 294 295 295 295 296 297 299 299 298 298 298 298 298 298 299 299 298
329 329 329 328 328 327 328 328 327 327 326 326 326 326 325 325 324 323 323 322 322 322 321 321 320 320 320 319 319 318 318 318 317 316 316 315 315 315 314 313 312 311 308 306 305 304 304 304 305 306 306 304 303 302 302 301 300 298 296 295 294 293 293 293 293 293 293 293 293 293 293 294 295 296 297 297 297 298 298 298 298 298 299 299 298
328 328 327 327 328 328 327 327 327 326 326 325 325 324 324 323 323 323 322 322 321 321 320 319 319 319 319 318 317 316 315 315 315 315 314 314 313 313 312 312 311 308 306 304 304 304 305 305 305 307 307 306 305 304 304 303 302 300 299 297 296 294 293 293 293 293 292 292 292 292 292 292 293 294 295 296 297 297 297 297 298 299 299 298 298
328 327 327 327 327 327 327 326 326 325 325 324 324 323 323 323 322 321 321 320 320 319 319 319 318 317 317 316 315 314 314 314 314 314 313 312 312 312 311 310 309 306 305 305 305 306 307 307 307 308 308 308 307 306 305 304 303 302 301 299 297 295 294 293 292 292 292 292 292 292 292 292 293 293 294 294 295 296 296 296 297 298 298 297 297
327 327 326 326 326 326 325 325 325 324 324 323 323 323 322 322 321 319 319 318 318 318 317 317 317 316 315 315 315 315 314 314 314 314 313 312 312 311 311 309 308 307 307 308 308 308 309 309 309 309 308 308 307 306 306 305 304 303 302 300 299 297 295 293 292 292 292 292 293 292 292 292 293 293 293 294 294 295 295 296 297 297 297 298 298
326 326 325 325 324 324 323 323 323 323 323 322 322 321 320 319 319 318 318 317 317 316 316 315 315 315 315 315 314 314 314 314 313 313 312 312 311 311 310 309 309 309 309 309 309 309 309 309 309 308 307 306 305 305 305 304 304 303 302 301 300 299 297 294 293 292 292 293 293 293 294 294 294 294 294 294 295 295 296 297 298 298 298 298 299
325 324 324 324 323 323 322 322 322 321 321 321 320 319 318 317 316 316 316 315 315 315 315 314 314 314 314 313 313 313 313 313 312 312 311 311 310 310 310 310 310 310 310 310 309 309 308 308 307 306 305 305 304 303 303 303 303 303 302 301 300 299 298 296 294 293 293 293 293 295 296 296 296 297 296 296 296 297 298 298 298 299 299 299 299
324 324 323 322 322 321 320 319 318 318 317 317 317 316 315 315 315 314 314 314 314 313 313 313 312 312 312 312 312 312 312 311 311 311 311 310 310 310 310 310 309 309 309 309 308 308 307 307 306 306 305 305 304 303 302 302 301 301 301 300 300 299 298 297 295 293 293 293 294 295 297 298 297 297 297 297 298 299 299 299 299 300 299 299 299
322 322 321 320 320 319 318 317 317 316 316 316 315 315 314 314 314 313 313 313 313 312 312 312 311 311 311 311 310 310 310 310 310 309 309 309 309 309 309 309 308 308 308 308 307 307 307 307 306 306 305 305 304 303 302 301 300 299 298 297 297 296 297 297 296 294 293 293 294 296 297 298 298 297 297 298 299 299 300 300 300 300 300 299 299
321 320 320 319 319 318 318 317 317 316 316 316 315 315 314 314 313 312 312 312 312 311 311 311 311 310 310 310 310 309 309 309 308 308 307 307 307 308 308 308 307 307 307 307 307 307 306 306 306 305 305 304 304 302 301 299 297 296 295 295 295 294 294 295 295 295 294 294 294 296 297 298 299 298 298 299 299 300 300 300 300 299 299 299 299
320 319 319 319 318 318 318 317 317 317 316 316 315 315 314 314 313 313 312 312 311 311 311 311 311 310 310 310 310 310 309 309 308 308 307 307 307 307 307 307 307 307 306 306 306 306 306 305 305 305 304 304 303 302 299 297 296 296 296 297 297 297 296 295 294 294 294 295 295 296 297 298 299 299 299 299 299 299 299 299 298 298 299 299 300
318 318 317 317 316 316 315 315 315 314 314 314 315 315 314 314 314 313 312 311 310 310 310 309 309 309 309 309 309 309 309 309 309 309 308 308 307 307 306 306 306 306 306 305 305 305 305 304 304 304 304 303 303 301 299 298 298 298 299 300 300 300 299 297 295 294 294 294 294 295 295 297 297 298 298 298 298 298 298 298 299 299 300 300 300
Wind_Speed
51 48 47 46 44 42 41 40 37 35 34 33 33 33 30 29 27 25 24 23 22 21 19 17 17 16 16 15 15 15 14 14 14 14 13 13 14 14 14 15 15 14 14 13 12 12 13 13 12 11 10 11 11 11 11 11 10 11 11 11 12 14 16 19 17 17 19 18 17 18 17 16 15 14 13 13 14 15 16 17 18 18 17 16 15
50 48 48 47 44 43 42 40 38 36 35 34 34 33 30 29 28 26 25 23 22 21 20 18 17 17 16 15 15 14 13 13 14 14 13 13 14 14 14 14 15 14 14 12 11 12 12 12 10 10 10 10 11 10 10 10 10 10 9 9 9 10 13 16 18 19 19 17 17 17 16 15 14 13 12 12 13 14 15 16 16 17 17 16 14
50 49 49 47 45 45 43 40 38 37 35 35 34 33 31 30 28 27 25 24 22 21 20 18 18 17 17 16 15 14 13 14 14 14 14 14 15 15 14 14 14 13 11 11 11 12 12 11 10 10 10 10 10 10 9 9 9 8 8 7 7 7 8 11 14 16 16 16 16 16 14 13 12 11 12 12 12 13 14 14 14 15 17 17 14
50 49 48 47 47 46 43 40 39 38 37 35 34 33 32 30 29 27 26 24 23 22 20 18 18 19 18 16 15 14 13 14 14 14 14 14 15 14 14 14 13 11 10 11 12 12 12 11 10 10 9 9 9 9 9 9 8 7 6 5 5 6 7 8 9 11 12 13 13 13 12 11 10 11 11 11 12 13 13 13 13 14 16 16 13
48 49 49 48 48 48 45 41 39 39 38 36 35 33 32 31 30 28 27 25 23 21 20 19 20 20 19 17 16 14 13 14 15 14 13 14 14 14 14 13 12 11 11 12 12 13 12 11 10 9 9 9 9 9 9 8 6 5 5 5 5 6 6 7 8 9 10 10 11 11 11 10 10 10 10 11 11 11 11 13 14 14 14 13 11
48 49 49 49 49 49 46 42 40 39 39 37 35 34 32 31 30 29 27 26 24 22 20 19 20 20 19 18 16 14 14 15 15 15 14 13 14 15 14 13 12 11 12 12 12 13 12 11 11 10 10 10 9 9 8 7 5 5 5 5 5 5 5 8 9 10 10 10 11 11 10 10 10 10 10 11 11 10 9 10 12 14 13 12 9
45 46 47 49 50 50 47 43 40 39 39 38 36 34 33 31 30 29 28 26 24 22 21 19 20 20 19 18 16 14 14 16 17 15 14 14 14 14 13 12 12 12 12 13 13 13 13 12 11 11 11 11 10 9 8 6 6 6 6 5 5 5 7 9 10 10 10 11 11 11 10 10 9 10 11 12 11 11 10 10 10 11 12 11 9
45 44 47 50 50 50 48 44 42 40 38 38 37 35 33 31 30 30 28 27 25 23 21 19 19 20 19 18 16 15 16 17 17 16 14 14 15 14 13 12 12 12 13 14 15 14 13 13 12 12 12 11 10 8 7 7 7 7 6 6 7 9 9 10 10 10 11 11 11 10 10 10 10 10 12 12 11 11 12 12 12 11 10 10 10
46 44 46 51 51 50 48 45 43 41 39 38 37 35 33 32 30 30 29 27 25 24 22 20 20 21 19 18 17 17 17 18 17 16 14 14 15 14 14 13 13 14 14 15 15 15 14 13 13 13 12 11 9 8 7 7 7 6 6 8 9 9 9 11 11 11 11 11 11 11 10 10 10 11 11 10 10 11 12 12 13 12 11 10 9
45 43 46 51 50 49 48 47 44 41 39 39 37 36 34 32 31 30 30 28 26 25 24 22 22 21 19 18 18 18 18 18 17 15 14 14 15 15 14 14 14 15 15 15 15 15 15 14 13 12 11 10 9 8 9 9 8 7 8 9 9 9 9 11 10 10 11 11 10 10 9 9 10 10 10 10 10 11 12 12 12 12 11 10 9
46 45 46 48 48 48 48 46 43 41 40 39 38 36 34 32 31 32 31 30 28 26 25 24 23 21 19 19 18 18 19 18 16 15 14 15 16 16 15 15 14 15 15 15 14 14 14 13 12 11 10 9 9 9 10 11 10 9 10 11 11 10 10 10 9 9 10 10 10 9 9 9 10 10 9 9 10 10 11 11 11 11 11 11 11
47 46 46 47 48 48 46 43 42 41 40 39 38 35 33 32 32 33 33 31 29 27 26 25 24 22 20 20 19 19 19 18 16 15 14 14 16 16 16 15 15 15 15 14 14 14 13 12 11 10 10 10 10 11 12 13 12 11 12 12 12 11 11 11 10 9 8 9 9 9 9 10 10 10 9 9 9 10 10 10 10 10 10 12 13
48 47 47 47 47 46 44 43 43 42 40 39 37 35 33 33 34 35 33 31 29 27 25 24 24 22 21 21 21 21 20 18 16 15 15 15 16 16 15 15 15 15 15 14 14 13 13 12 11 10 10 11 11 12 13 15 14 13 13 13 13 12 12 12 11 10 9 9 9 9 9 9 9 10 10 9 10 10 9 9 9 9 10 11 12
48 48 48 47 46 46 45 45 44 43 40 39 36 34 33 34 36 35 33 30 30 28 26 25 25 24 22 22 22 21 20 18 17 15 16 16 16 16 16 15 16 16 15 14 13 12 12 11 10 10 10 11 12 12 13 15 14 14 14 14 13 12 11 11 10 9 9 8 9 9 9 9 10 11 11 10 10 10 9 8 9 9 10 10 11
46 47 47 46 46 47 46 46 45 43 40 38 35 34 33 33 34 34 32 32 31 29 27 27 27 25 23 22 22 21 19 18 16 16 16 17 17 17 17 17 17 16 15 14 12 12 12 11 11 10 10 11 11 11 12 14 14 15 15 15 13 12 11 10 9 9 8 9 9 10 10 11 11 12 12 11 10 10 9 9 10 10 10 11 11
44 45 45 45 47 48 46 46 46 43 40 37 35 36 35 32 32 34 34 33 31 27 26 28 27 24 22 24 24 22 21 19 17 17 17 17 18 18 18 18 17 15 14 13 13 13 12 12 11 11 10 11 10 10 11 13 14 15 15 15 13 12 11 10 9 9 9 10 10 11 12 12 12 12 12 12 11 10 10 10 11 11 11 11 10
44 45 45 45 47 47 46 46 46 44 40 37 36 39 36 32 32 35 35 33 31 29 28 28 27 23 22 25 26 24 22 20 17 17 18 19 19 19 18 17 15 14 13 13 13 13 12 11 10 10 10 10 10 9 10 12 14 15 16 15 14 12 11 10 10 10 10 10 11 12 13 13 12 13 13 13 12 11 11 11 11 10 10 10 10
44 45 45 45 47 47 46 46 46 44 39 36 38 41 36 31 32 34 34 33 32 31 29 28 28 24 20 21 23 22 21 19 17 17 19 19 19 18 17 16 14 14 13 13 12 12 12 12 10 9 9 9 9 9 10 12 14 15 16 16 15 13 11 10 10 10 11 11 11 12 13 13 13 13 13 13 12 12 12 11 10 10 10 10 10
44 45 45 46 47 46 45 46 47 44 38 35 40 41 34 29 30 31 32 33 31 30 29 30 29 25 19 18 20 21 21 20 18 18 18 18 18 17 16 16 15 13 13 12 12 12 12 12 11 10 10 9 9 9 10 12 14 15 15 15 15 13 11 10 10 11 12 12 13 13 14 14 14 14 13 13 13 12 12 12 12 12 11 10 10
44 45 45 46 46 45 45 46 45 43 37 35 40 40 33 29 29 30 30 31 30 30 31 31 29 25 21 19 20 22 21 20 18 17 16 16 16 16 16 16 14 13 12 12 12 13 12 11 11 10 10 10 9 9 10 12 14 14 14 15 14 12 9 9 11 13 13 13 14 15 15 15 15 14 14 13 13 12 12 12 13 13 12 11 10
43 44 44 45 45 44 44 44 44 41 35 34 40 39 32 30 31 30 30 31 31 31 31 30 28 25 23 22 21 21 22 20 18 16 15 15 16 16 16 15 13 12 12 12 12 12 12 10 9 8 9 9 8 8 10 12 13 14 15 15 13 11 10 11 13 14 14 14 15 16 16 16 16 15 14 14 13 12 12 13 13 13 13 12 11
41 42 44 44 43 43 43 43 44 40 34 34 40 38 31 31 31 30 30 32 33 32 31 29 28 27 26 25 22 21 23 22 19 16 15 15 15 16 16 15 14 13 13 13 13 13 12 10 8 7 7 7 7 7 8 10 13 14 13 13 12 10 11 12 14 15 15 14 15 16 16 16 17 16 15 14 14 13 14 14 13 13 13 13 13
38 40 42 43 42 42 43 44 44 40 33 34 38 38 34 33 32 31 31 33 35 34 32 30 30 29 29 28 25 23 24 23 21 19 18 17 16 16 15 15 14 14 13 13 13 13 12 10 9 8 7 7 7 7 7 8 11 12 12 11 11 10 11 13 15 16 17 16 15 16 16 16 16 16 16 16 16 15 15 15 14 13 12 13 13
37 38 40 42 42 41 43 46 45 39 34 35 37 37 36 33 32 33 33 35 36 35 32 32 32 31 31 30 28 25 25 25 24 22 20 19 18 17 16 16 16 15 14 13 14 15 14 12 9 8 7 8 8 8 8 9 10 11 12 12 12 12 12 14 16 17 18 18 18 18 17 16 15 15 16 17 18 17 16 16 15 13 13 14 14
37 37 37 38 40 41 44 47 44 37 35 38 37 34 33 34 35 35 36 36 37 34 33 34 34 32 31 31 28 26 27 29 27 24 22 21 19 17 15 16 17 16 15 15 14 15 15 13 10 10 10 10 10 11 12 11 10 11 14 15 14 14 14 15 16 18 19 20 20 19 18 16 16 16 17 17 18 18 17 16 15 15 15 15 15
36 34 33 35 37 40 42 42 39 35 33 35 35 31 32 36 36 36 36 35 34 34 34 34 32 31 31 30 27 26 29 32 30 26 25 23 21 18 16 17 18 17 16 15 14 14 15 14 14 13 12 12 13 14 14 13 12 12 15 17 17 16 15 16 17 18 19 19 19 18 17 16 16 17 17 17 18 19 18 17 16 16 16 15 15
36 34 35 36 37 38 38 34 34 34 33 32 33 33 33 34 35 35 35 34 33 34 34 32 30 31 31 30 27 26 30 32 31 28 28 26 23 20 19 19 19 19 19 18 17 15 15 16 16 16 15 14 15 15 15 16 15 15 17 19 19 17 16 16 17 18 19 19 18 17 16 15 15 15 16 17 18 19 19 18 18 17 15 14 14
38 35 36 37 37 37 36 34 35 37 36 34 36 37 36 36 35 34 34 34 34 34 33 31 31 31 30 29 29 28 30 31 31 29 28 27 25 23 22 21 21 20 19 18 17 16 16 18 18 18 17 16 16 17 17 17 18 18 19 20 20 19 18 17 18 18 19 19 18 17 15 14 13 13 14 16 18 19 19 19 18 17 16 14 14
39 36 36 37 37 35 35 36 37 38 37 37 37 37 37 38 36 32 31 32 31 30 29 30 30 30 30 29 28 28 30 31 28 25 23 24 24 24 22 21 19 18 17 16 16 17 18 19 20 19 18 18 18 18 18 18 18 19 20 21 21 21 20 20 20 20 20 19 18 17 16 14 13 13 13 15 17 18 19 19 18 17 16 15 15
39 38 37 38 37 35 36 38 40 39 39 39 40 39 39 39 37 32 30 30 28 25 25 25 24 26 29 28 24 24 25 25 22 20 19 20 22 21 19 17 16 15 15 16 17 19 20 20 20 19 19 19 19 19 20 19 19 20 21 22 22 22 21 21 21 21 21 20 18 18 17 17 15 14 14 14 15 17 19 19 19 18 17 17 16
39 41 41 42 41 39 40 42 43 42 41 41 42 42 43 43 39 33 28 28 27 24 22 20 18 21 27 27 23 21 20 18 18 18 18 18 20 20 19 19 18 17 18 18 19 21 21 21 20 19 19 19 20 20 20 20 20 20 20 22 22 22 21 20 19 19 20 19 18 18 18 18 18 16 15 14 14 16 18 19 19 19 18 17 17
38 41 43 44 44 44 44 44 44 44 44 43 43 45 46 44 39 32 29 28 27 23 21 20 19 21 25 25 23 21 19 17 16 16 16 18 21 22 23 22 21 21 21 21 21 22 22 21 21 20 19 20 20 20 20 21 21 20 20 21 21 21 20 20 18 18 19 19 19 19 18 18 19 18 16 14 14 15 18 19 19 18 18 18 17
36 41 43 44 44 44 44 43 43 43 43 44 45 46 44 40 36 34 34 32 28 23 22 21 21 22 24 24 22 21 19 17 15 15 16 18 21 23 23 23 23 23 23 23 23 23 23 23 22 21 21 21 22 21 21 21 21 21 21 20 20 20 20 20 20 21 21 20 19 19 19 19 19 18 16 14 14 15 17 18 18 17 18 18 16
34 38 40 42 44 44 43 42 41 41 40 42 43 41 38 36 36 37 37 34 30 26 25 23 23 23 23 24 24 23 22 20 18 18 18 19 20 21 22 22 23 23 23 23 23 23 23 23 23 22 22 21 21 21 20 19 20 21 21 21 20 20 20 21 22 24 23 22 21 19 18 19 19 18 16 15 15 15 16 17 17 17 17 17 15
37 39 41 43 44 44 42 41 39 38 36 37 38 37 37 38 37 36 36 35 33 31 29 27 26 25 24 25 26 25 24 23 22 21 20 20 20 20 19 20 21 22 22 21 21 21 21 21 21 20 19 18 18 17 17 16 17 18 19 21 21 22 22 22 23 23 24 24 23 21 19 19 19 18 17 17 17 16 16 16 17 17 17 16 14
38 40 42 43 43 42 40 40 40 38 35 35 36 36 37 37 34 32 34 34 31 30 30 28 28 27 26 25 25 25 23 23 23 22 21 20 19 18 18 19 19 19 18 17 17 17 18 18 18 16 15 14 14 14 14 14 15 16 17 19 21 21 22 22 22 23 23 24 25 23 21 20 20 20 19 19 19 18 16 16 17 17 17 16 14
38 39 39 39 39 38 37 37 38 37 34 34 34 34 34 33 29 29 32 30 27 26 27 28 28 28 27 26 25 25 23 22 21 21 20 20 20 20 19 18 16 15 15 15 15 15 14 14 14 13 12 13 13 13 14 14 14 14 15 17 19 20 20 21 21 22 23 24 25 25 23 22 21 21 20 21 20 19 17 16 17 17 17 16 14
36 35 32 32 33 34 34 35 36 34 32 31 31 30 30 28 25 25 27 26 23 23 25 27 27 27 28 27 26 25 24 23 23 22 22 22 22 21 20 18 17 16 15 15 14 14 13 13 12 12 13 13 13 14 14 14 14 15 15 16 18 19 19 20 21 21 22 23 24 25 26 25 24 23 23 23 22 20 18 17 16 17 17 16 14
31 29 26 27 30 32 33 33 33 31 29 29 29 28 28 27 25 24 24 22 22 22 23 23 24 24 24 25 25 25 24 24 23 22 22 22 21 19 18 17 17 17 16 15 15 14 13 13 13 13 13 14 14 15 15 15 15 15 15 16 17 18 19 19 20 20 21 21 22 23 25 26 26 26 25 24 22 20 19 17 16 16 16 15 13
26 24 23 24 26 28 29 27 25 25 26 27 27 27 27 26 25 24 23 22 23 23 23 22 22 22 22 22 23 24 23 22 21 20 20 18 17 17 17 17 16 16 15 14 14 14 14 14 14 14 14 14 14 15 15 15 15 15 15 16 16 16 17 17 17 18 19 19 20 21 22 24 25 26 26 24 22 20 19 17 15 15 17 16 13
23 23 22 21 23 25 25 25 25 25 25 25 24 24 25 25 24 23 23 23 23 23 23 22 21 21 21 21 20 19 18 18 18 18 16 16 16 16 17 16 16 15 15 14 15 15 16 16 15 15 15 15 16 16 16 17 17 16 16 15 15 14 15 15 16 16 16 17 18 19 20 21 22 23 24 23 22 20 18 16 14 15 17 17 15
26 28 28 27 27 28 28 28 27 26 25 25 24 24 24 24 23 23 22 22 22 23 23 22 21 21 21 20 19 18 16 16 16 16 16 15 16 16 16 16 16 15 15 15 17 18 18 18 18 17 17 17 17 17 17 18 18 18 17 15 14 14 14 15 15 15 15 15 16 17 18 19 21 22 22 22 21 19 17 15 13 14 16 16 15
26 28 28 27 27 27 28 28 27 26 25 25 24 23 23 22 22 21 21 21 21 22 22 22 22 22 22 21 19 18 17 17 17 17 17 17 17 17 17 17 17 17 17 18 19 20 20 19 19 18 18 18 18 18 18 19 19 19 17 16 14 14 14 14 14 14 14 14 15 15 17 18 19 20 20 20 18 16 15 13 13 14 15 14 14
26 26 26 26 26 26 27 28 27 27 26 25 24 23 23 22 21 21 20 21 21 20 19 19 19 19 18 17 16 15 15 15 16 16 17 18 18 18 18 18 18 18 18 18 19 19 19 19 19 19 18 17 17 17 18 19 19 19 18 17 16 15 14 14 13 13 13 13 14 14 15 16 16 16 16 15 14 14 14 13 14 14 13 13 14
28 28 28 28 28 28 28 29 28 27 26 25 24 23 22 21 21 20 20 19 19 18 17 16 15 14 13 13 13 13 14 14 14 15 16 16 16 16 17 17 17 17 17 18 18 18 18 18 17 16 15 14 14 15 16 17 19 19 18 18 16 15 14 14 14 14 14 14 14 14 13 13 12 12 12 13 13 14 14 14 14 13 13 13 14
27 28 29 29 29 29 28 27 26 26 25 24 24 23 22 21 20 19 18 17 17 17 16 15 14 13 12 12 12 13 12 12 12 13 13 14 14 15 16 16 17 17 17 17 17 16 15 14 13 13 13 12 13 13 14 15 16 16 17 17 16 15 15 15 15 15 15 14 14 14 13 12 11 11 12 14 15 15 15 14 13 13 13 14 14
25 27 27 28 28 28 27 25 24 23 22 21 20 20 19 19 18 18 17 16 15 15 14 14 13 13 12 12 12 12 12 12 12 12 12 13 13 14 14 15 15 15 15 14 14 13 12 12 12 13 13 12 12 12 12 12 13 14 15 15 15 15 15 16 16 16 16 15 15 15 14 13 12 12 14 15 16 16 15 14 14 14 14 14 15
26 26 27 27 26 26 25 24 22 21 19 18 16 15 15 15 16 15 15 15 15 14 14 13 13 14 13 13 13 13 13 13 13 13 13 14 14 13 13 13 13 13 13 13 12 12 12 12 13 13 12 11 11 11 11 11 11 12 12 12 13 13 14 15 16 17 17 17 17 17 16 15 14 15 16 17 17 17 16 15 15 16 16 16 16
25 25 25 25 24 23 23 22 20 19 18 16 15 14 14 13 13 12 13 14 15 15 15 15 14 14 14 13 13 12 12 12 12 11 11 12 13 13 13 12 12 12 11 11 11 12 12 12 12 13 12 11 11 11 10 10 10 10 10 9 9 9 11 12 14 16 18 18 18 18 18 17 16 16 17 17 17 18 18 18 18 18 18 17 18
24 23 23 23 22 22 21 20 19 18 17 16 15 15 14 13 12 12 11 12 13 14 15 14 14 13 13 12 11 11 12 12 12 11 11 10 10 11 11 11 11 11 11 11 12 12 13 13 13 12 12 11 11 10 10 10 9 9 8 8 8 8 9 10 11 13 16 18 18 19 19 19 18 17 17 18 18 19 19 19 18 18 18 19 19
23 23 23 23 23 23 22 21 19 18 17 15 14 14 13 13 13 12 13 14 14 14 13 13 12 13 13 11 9 9 10 11 11 12 12 11 10 9 9 10 11 11 12 12 12 12 13 13 13 13 13 12 11 11 10 10 9 8 8 8 8 9 9 9 9 10 12 14 16 17 18 18 18 18 18 18 19 19 19 18 18 19 19 19 20
Wind_Direction
218 217 216 216 218 221 224 226 227 228 228 227 227 227 226 225 224 223 223 223 223 223 223 223 223 223 220 221 224 226 230 238 242 242 240 241 245 249 250 246 240 238 237 235 234 235 231 223 221 224 227 231 233 235 239 240 242 246 245 247 244 236 234 235 239 250 256 256 254 254 258 264 271 280 291 302 311 319 324 325 326 328 331 336 338
219 217 216 216 217 220 223 225 226 227 228 227 226 226 226 226 225 224 223 223 223 222 222 221 220 220 219 220 224 228 234 242 244 244 244 246 249 252 249 241 237 237 235 235 236 233 228 221 219 224 227 231 234 234 237 238 240 244 244 244 245 239 233 235 240 248 255 256 252 254 260 264 269 279 289 298 309 318 321 320 321 324 326 330 334
218 217 216 215 216 219 222 223 225 227 227 227 226 225 225 226 226 225 223 221 220 220 219 220 220 218 218 220 224 228 236 243 243 243 244 249 252 250 243 236 235 235 234 236 237 232 228 222 220 224 229 232 235 235 236 238 238 241 242 242 242 240 236 236 239 245 251 253 253 255 259 261 268 282 290 297 307 315 317 316 316 320 322 324 328
216 216 216 215 216 219 221 222 224 226 226 226 225 224 224 225 225 224 222 219 217 217 216 217 219 218 217 220 224 229 236 241 241 241 245 250 250 243 234 230 231 232 233 233 231 228 225 222 221 224 229 234 235 234 234 236 237 239 240 241 242 242 241 238 239 244 247 249 250 250 253 261 272 282 288 295 304 310 313 313 314 317 317 317 322
214 216 216 214 216 218 220 221 224 225 225 225 224 223 224 224 224 222 219 216 215 214 212 213 215 216 217 220 224 229 234 237 237 239 246 249 244 235 228 226 227 229 231 230 226 224 222 220 221 222 226 232 232 230 229 231 233 232 232 239 244 243 243 246 245 244 245 248 251 250 254 263 270 277 285 291 299 305 308 311 313 314 312 314 319
214 215 214 214 215 218 219 220 223 225 225 224 223 223 223 223 223 220 215 213 213 211 210 212 213 213 216 220 224 228 231 231 231 237 244 243 235 229 226 226 226 228 231 228 224 223 222 219 218 218 220 225 224 221 222 221 218 218 225 234 236 243 255 254 246 241 244 249 250 251 256 263 266 274 283 290 298 303 303 307 311 309 310 315 322
212 211 213 214 215 217 219 220 222 224 224 223 222 222 222 223 222 218 213 211 210 209 209 210 209 211 216 220 224 227 228 226 228 234 240 239 232 228 227 227 229 232 233 229 224 222 221 220 218 216 218 219 218 215 214 212 211 215 221 224 234 264 271 253 241 240 244 246 246 250 256 262 268 277 286 294 303 307 309 314 313 306 305 313 324
211 210 212 214 215 217 218 219 221 223 223 223 221 221 221 221 221 216 211 208 208 208 209 208 207 211 215 218 223 226 224 222 225 230 236 236 232 228 227 227 230 233 234 232 227 222 220 220 219 217 218 218 218 218 218 217 218 222 227 237 259 281 272 245 235 237 240 243 247 251 256 262 271 283 291 298 305 308 313 320 321 316 315 319 326
212 209 211 214 216 217 218 218 219 221 223 222 220 220 221 220 218 213 209 206 205 206 209 210 210 212 213 216 222 224 220 218 221 227 232 233 229 226 226 228 230 232 233 232 229 224 221 220 221 219 220 223 224 223 221 218 220 233 255 264 273 278 257 235 232 236 239 244 246 249 256 263 275 286 292 296 301 305 312 321 326 326 327 330 329
210 208 212 216 216 216 217 218 218 219 221 221 219 218 219 219 215 210 206 205 204 204 208 211 211 212 214 217 222 222 218 215 216 222 227 227 224 222 223 226 228 230 232 232 229 225 223 222 223 224 225 228 227 223 221 218 220 241 264 263 257 251 238 234 239 243 245 246 246 252 261 268 279 286 288 292 300 305 313 323 330 330 329 330 328
211 211 215 215 214 215 217 217 218 218 219 219 218 217 217 217 212 207 207 205 202 203 209 211 208 209 214 219 221 221 216 212 213 219 223 222 220 221 222 223 227 229 231 231 227 224 224 225 226 228 228 227 222 221 223 220 224 246 260 251 238 229 225 232 243 250 252 250 251 259 267 272 279 283 285 292 297 302 311 322 331 333 333 331 329
211 211 213 212 212 215 217 216 216 216 217 218 218 216 215 213 210 208 207 204 201 205 210 209 205 207 214 219 219 216 211 208 211 216 220 220 220 221 222 224 226 228 229 229 226 223 223 224 225 226 226 224 222 223 225 223 229 248 254 242 231 225 226 230 232 236 244 251 256 263 268 273 279 280 282 287 292 299 309 319 328 332 333 332 330
211 210 211 211 213 215 215 214 214 215 215 216 216 215 212 209 208 208 204 200 201 206 207 205 204 208 215 219 217 211 206 206 210 215 217 217 218 221 224 226 228 228 227 226 224 222 221 220 220 220 220 222 224 224 223 223 233 250 250 237 228 228 233 235 232 232 236 245 254 260 265 271 275 275 277 281 287 293 301 310 319 325 330 331 327
209 209 209 211 212 213 212 212 213 214 213 213 213 213 211 208 206 204 200 198 201 203 204 205 208 212 218 218 212 207 205 205 209 213 215 216 217 220 223 225 226 225 224 223 220 219 218 215 215 217 220 225 228 228 226 229 240 251 247 235 231 235 239 239 240 241 242 247 255 261 264 266 265 265 270 275 281 286 291 299 309 315 320 325 327
206 207 209 210 210 211 211 212 212 211 211 212 211 210 210 209 205 200 199 201 203 202 203 207 210 215 217 211 204 203 204 205 207 211 214 215 216 218 221 223 223 222 221 220 216 213 212 211 211 215 223 228 229 229 235 242 250 253 243 233 234 241 243 243 243 242 244 250 254 256 258 257 255 260 268 273 276 280 287 296 304 310 314 320 326
204 205 206 207 209 211 212 212 211 209 208 210 210 208 209 210 205 200 201 203 203 204 206 205 208 214 212 203 202 204 203 202 206 211 213 215 215 216 219 220 219 219 218 217 213 209 209 210 213 215 220 224 225 230 244 252 254 250 241 235 237 242 242 242 243 244 248 252 254 254 255 256 256 261 268 272 274 278 285 293 300 306 310 312 314
203 204 206 208 209 210 212 211 209 207 206 208 209 208 207 209 205 202 202 203 202 203 203 201 205 211 208 204 205 205 201 199 205 211 213 214 215 216 218 218 216 216 215 213 212 210 208 208 212 216 216 219 224 237 253 257 253 246 240 237 239 240 239 241 247 252 255 256 257 255 253 255 258 261 266 269 271 274 280 287 293 298 303 304 304
203 205 207 210 209 209 211 210 208 207 206 206 208 207 204 206 205 202 202 203 202 201 199 199 203 206 206 205 203 198 195 196 204 211 213 214 215 216 217 215 212 211 210 209 210 209 206 205 208 212 212 216 228 244 257 258 252 244 239 239 241 239 237 243 252 259 261 261 260 255 250 252 257 261 265 266 266 267 272 279 285 288 295 299 302
206 208 210 210 208 208 210 208 208 209 207 206 208 205 201 202 202 200 203 205 203 202 199 199 201 199 199 201 195 190 192 196 202 208 211 213 214 213 212 210 208 206 205 205 205 203 201 202 203 206 211 217 230 248 258 256 249 242 237 238 242 243 242 248 257 261 261 258 255 250 246 249 255 259 261 261 260 262 267 274 281 284 289 294 299
209 210 210 208 206 208 210 209 209 210 207 207 208 204 201 204 202 198 202 204 204 202 199 199 200 196 194 197 193 191 193 194 197 202 206 210 211 209 209 206 202 199 198 197 199 197 196 199 201 202 210 219 229 245 255 253 246 242 237 235 241 248 249 250 255 257 255 253 250 246 243 247 252 255 257 257 258 260 264 271 280 283 283 286 291
210 209 207 205 206 209 210 210 210 209 206 208 209 204 203 209 205 198 199 200 198 197 197 198 198 195 194 196 195 195 194 191 193 198 201 206 206 204 204 200 193 190 189 189 191 191 191 196 199 199 208 218 229 243 252 252 247 243 238 235 241 248 246 245 250 253 255 254 249 243 240 243 249 253 255 257 258 260 265 272 279 281 280 282 286
209 206 204 205 207 209 210 210 208 207 208 211 209 203 205 211 206 199 200 200 197 197 198 196 193 192 196 197 195 197 195 191 192 197 198 201 203 201 199 194 188 186 185 185 187 186 186 190 191 194 204 215 227 241 250 251 248 243 238 234 236 239 237 241 248 252 254 253 249 244 242 245 250 253 255 257 259 258 263 271 276 276 277 283 286
207 204 203 206 209 210 210 209 207 206 208 209 207 206 209 209 203 200 202 201 199 198 197 194 191 193 197 196 193 194 194 192 194 199 200 200 202 201 197 190 187 188 187 185 185 184 185 187 185 188 201 211 222 234 246 251 246 240 234 229 228 231 235 241 247 250 252 252 250 248 247 249 253 257 256 255 255 256 261 268 271 271 276 285 289
205 204 204 206 210 212 212 209 207 207 205 204 207 211 211 205 199 200 202 200 199 197 193 194 196 197 198 198 195 192 193 194 198 203 204 205 205 203 196 188 186 189 188 186 188 189 188 185 183 190 202 211 221 231 242 250 246 235 228 227 228 234 241 247 251 252 252 252 252 251 251 253 256 258 256 251 250 254 260 264 265 267 275 284 289
196 200 203 205 207 211 211 207 204 204 205 205 205 207 209 205 201 201 201 202 203 200 194 196 200 199 198 198 195 193 195 197 200 204 207 210 211 206 200 194 193 194 193 192 193 193 189 185 189 200 207 212 218 225 234 244 247 236 229 230 235 241 248 252 253 252 250 250 253 254 255 256 256 256 254 251 250 252 256 257 258 264 274 283 288
194 197 204 208 207 204 203 201 199 201 206 207 204 206 210 208 203 202 204 206 207 203 198 200 203 201 199 196 195 197 199 199 201 206 209 211 213 209 205 205 201 199 199 198 194 192 193 195 201 210 216 218 221 225 230 237 245 244 236 234 237 243 248 252 253 252 251 253 257 260 259 258 257 256 256 254 252 251 251 252 256 264 274 283 287
198 195 198 204 206 204 204 206 204 202 203 204 205 210 213 209 204 205 207 207 206 202 200 202 204 203 201 197 195 199 200 200 204 210 210 211 213 210 210 212 208 203 203 202 197 197 201 206 210 216 222 227 230 232 233 234 239 242 238 235 236 240 246 251 253 253 254 256 260 262 260 258 259 260 260 259 257 254 252 252 255 263 273 280 283
200 195 194 198 201 203 207 209 206 201 201 202 205 209 209 207 206 207 207 206 203 200 199 201 203 204 202 197 195 200 203 204 208 213 215 214 213 213 215 216 213 211 209 206 202 204 209 215 219 221 225 231 236 239 241 240 240 239 236 234 236 238 243 249 252 254 255 256 259 261 260 259 262 265 264 262 260 258 254 251 254 261 269 273 274
199 197 196 197 197 197 201 205 203 201 203 206 207 210 210 209 208 206 205 203 200 197 198 200 203 204 202 198 199 203 206 208 212 218 221 219 217 218 221 220 217 215 213 210 209 211 216 222 225 226 230 236 240 244 247 248 247 243 238 235 236 239 244 250 253 255 255 257 260 261 260 258 260 266 267 264 260 256 252 250 253 259 264 266 268
199 197 194 192 192 193 197 201 200 201 205 207 208 211 213 212 212 210 203 196 193 197 202 203 204 204 201 199 202 206 207 208 213 218 219 216 216 219 220 217 215 213 210 210 212 216 221 225 228 231 236 240 243 246 248 250 251 248 244 241 240 243 247 251 253 253 253 255 259 260 257 255 255 261 267 266 262 256 251 250 252 256 262 264 265
202 201 195 190 188 190 193 195 196 199 204 206 207 211 212 209 209 212 207 196 192 197 202 201 202 204 200 198 200 203 202 203 203 204 203 205 207 206 203 202 205 205 204 207 213 217 222 226 229 232 237 242 246 248 249 251 252 249 245 243 242 243 247 249 249 248 249 252 255 255 254 251 251 255 264 269 266 258 252 249 251 255 260 262 262
206 203 199 194 191 189 188 190 195 199 203 205 208 212 210 204 201 204 205 198 193 193 193 189 188 193 196 196 197 198 197 195 192 192 197 202 200 195 192 195 199 200 201 206 214 219 223 227 230 234 238 244 249 251 251 252 251 248 246 244 242 242 243 243 244 245 246 248 251 251 251 249 247 251 259 268 267 258 252 251 252 254 258 261 262
208 204 201 197 194 189 187 190 194 198 201 205 208 209 205 199 196 197 197 195 191 188 183 179 179 182 188 192 194 194 193 190 190 196 203 204 200 195 193 195 199 203 206 211 218 223 225 228 231 235 238 244 250 254 254 253 250 247 246 246 247 247 244 242 242 243 245 248 251 253 252 248 245 247 254 263 267 262 256 255 254 254 258 261 261
212 209 207 202 196 192 192 193 193 195 201 206 207 203 198 196 198 195 189 186 185 181 177 175 175 177 181 185 187 187 186 187 194 202 203 201 199 197 196 197 202 208 213 218 224 229 232 233 235 237 240 246 252 256 258 256 252 249 247 247 249 250 248 245 244 243 244 247 249 253 254 249 243 244 250 259 266 266 261 257 254 254 257 259 257
211 211 210 206 200 195 196 197 194 193 198 202 202 200 199 202 203 196 184 180 179 177 174 174 175 176 179 181 182 184 186 189 194 197 197 197 198 198 200 206 212 216 219 224 229 235 238 239 240 243 246 250 254 256 256 255 253 251 249 248 248 249 248 248 247 244 243 243 243 246 250 246 240 242 248 256 265 268 263 257 253 253 255 254 251
210 207 204 201 197 195 198 201 199 196 196 198 200 202 203 202 198 191 184 181 180 178 178 177 177 176 176 179 183 186 188 191 193 194 193 196 199 204 211 218 221 224 227 231 235 238 239 240 240 242 244 245 247 248 248 249 249 248 248 248 248 248 249 249 249 248 245 241 238 239 242 241 239 241 246 254 263 266 262 255 251 251 251 247 243
209 205 198 194 194 195 198 200 199 197 197 199 200 201 200 195 190 186 186 184 182 183 184 182 180 178 176 178 184 187 188 189 192 193 194 198 203 208 213 218 223 227 231 234 233 232 232 232 231 232 233 235 238 239 240 242 244 244 246 246 247 248 249 248 248 248 246 242 237 233 233 234 236 240 246 254 260 262 257 252 250 250 247 239 235
205 202 197 194 195 197 198 196 195 195 197 198 197 194 192 188 182 181 183 182 179 183 185 184 183 183 182 182 185 188 190 192 192 194 198 202 205 208 211 214 219 224 227 228 226 224 223 223 223 225 227 230 233 235 237 240 242 243 246 247 247 248 248 247 246 245 244 244 240 234 232 233 236 240 246 252 256 255 250 248 250 249 241 232 228
197 196 195 195 196 198 198 195 193 194 194 192 186 181 178 175 170 170 175 177 175 175 177 179 181 185 187 188 190 192 194 196 196 198 202 205 206 209 211 214 219 223 223 221 219 217 218 219 220 222 225 227 230 234 239 243 247 249 250 250 250 250 249 249 249 248 246 245 243 239 238 237 238 241 246 249 251 249 244 246 252 246 231 224 230
186 185 187 189 190 190 189 184 179 180 181 178 174 169 166 165 165 166 170 172 171 170 171 175 179 182 188 194 197 198 199 199 200 203 206 207 207 208 209 212 218 222 220 216 216 217 217 218 221 223 225 227 232 238 244 250 253 254 253 253 254 254 253 252 252 250 247 245 242 239 239 238 238 241 243 244 245 244 241 246 253 241 225 222 235
171 168 167 167 165 164 162 158 155 159 162 163 162 162 161 162 164 167 170 171 171 171 173 176 180 184 189 195 199 202 204 206 206 206 206 207 207 208 209 212 217 219 215 212 213 216 216 219 224 228 229 231 236 241 249 255 257 256 257 258 259 260 258 255 253 249 247 245 242 239 238 237 236 238 239 239 240 240 239 244 249 239 229 229 238
148 146 145 146 148 147 147 147 149 151 154 156 157 159 160 162 166 169 171 172 173 174 175 177 180 184 187 190 191 191 194 198 199 199 200 202 203 204 206 210 213 215 213 212 214 218 219 222 228 234 236 238 240 244 250 256 258 259 262 263 265 265 262 257 254 250 247 244 243 240 239 237 235 235 236 236 237 238 240 243 243 236 232 235 244
138 139 140 145 148 148 147 149 150 151 154 158 160 161 164 167 168 170 171 172 173 175 177 178 180 181 183 183 183 184 186 190 194 196 198 199 199 201 202 204 206 209 212 215 220 224 227 231 238 243 245 246 247 249 252 255 257 260 264 267 268 267 263 258 255 252 248 246 244 241 239 237 237 238 238 237 237 238 238 235 231 229 230 239 255
141 141 143 147 149 150 150 152 153 155 158 161 163 164 168 170 168 167 167 167 168 172 175 178 180 180 180 181 185 190 196 201 204 205 204 203 203 203 203 204 206 211 216 221 226 230 234 241 247 250 251 252 253 254 256 257 259 261 264 265 266 266 265 261 256 251 247 244 242 238 237 238 239 239 239 237 234 230 226 221 221 227 236 251 268
140 141 143 145 147 149 151 152 154 157 159 160 161 161 162 163 163 163 165 167 169 172 175 179 182 184 186 190 195 200 204 206 207 208 207 206 206 206 206 208 213 218 223 229 232 234 238 243 247 251 254 257 259 260 260 259 260 260 261 262 264 266 265 261 253 247 244 241 236 234 236 240 241 239 235 228 220 215 213 216 224 235 249 264 275
139 140 141 143 145 148 149 150 152 154 155 157 159 158 158 159 161 163 165 169 171 174 177 181 185 189 193 198 200 200 200 199 198 199 201 202 204 207 211 215 220 222 227 233 237 239 242 247 252 259 263 265 266 266 262 259 258 258 259 261 263 264 262 258 252 249 246 239 232 230 234 240 244 240 228 217 211 211 216 225 236 249 262 270 275
138 138 139 141 142 144 145 145 146 147 147 149 150 150 151 155 159 162 165 169 174 176 179 182 185 188 191 194 196 198 200 200 200 202 203 204 207 212 216 220 223 226 232 239 244 248 254 260 264 268 271 271 271 269 264 259 257 257 258 261 263 263 261 258 254 250 246 238 232 231 231 235 239 233 221 214 214 220 230 241 250 261 269 272 273
138 138 139 140 141 141 141 141 141 140 139 138 138 139 141 145 150 154 157 159 161 163 166 170 176 180 183 187 191 195 199 202 204 206 207 209 213 217 220 225 231 236 240 244 247 252 258 263 267 271 274 275 274 271 265 260 258 257 258 262 264 263 261 257 252 249 246 240 236 234 232 233 234 229 223 222 225 232 241 250 257 264 270 272 274
137 136 138 139 139 140 141 142 141 140 139 138 138 139 139 141 145 148 149 148 148 149 153 158 165 170 175 180 184 189 193 194 195 196 199 205 211 217 221 227 234 239 244 250 255 259 263 265 268 271 273 272 272 270 264 260 259 259 262 266 269 267 265 260 253 249 246 243 241 239 236 236 236 234 232 234 237 242 249 256 260 265 270 273 275
133 134 136 137 138 140 142 142 142 141 141 141 142 144 146 150 155 160 162 161 159 158 159 162 168 173 177 182 190 198 203 203 201 199 199 203 211 216 219 225 233 240 247 253 256 259 263 264 265 267 267 266 266 264 260 258 259 261 265 272 278 278 277 273 262 252 247 244 243 243 241 241 242 242 243 246 250 253 257 261 264 266 269 272 273
132 134 136 136 135 135 134 133 132 131 133 136 141 147 153 158 163 167 169 169 167 166 167 171 175 176 176 178 189 204 212 214 216 216 215 216 222 226 224 225 231 237 243 247 250 254 258 260 260 260 261 259 258 256 254 255 257 260 265 275 282 282 281 277 269 257 248 243 243 244 246 247 249 251 253 255 257 259 262 263 264 266 268 270 272